| time (UTC) | temp C | wind direction | speed KPH | gust KPH | rain 1hr cm | rain 24hr cm | rain mn cm | humidity % | barometer mb |
| 20260901081037 | 15 | 29 | 0.0 | 1.6 | 0.00 | 0.00 | 0.00 | 76 | 1008.2 |
| 20260901080537 | 15 | 29 | 0.0 | 1.6 | 0.00 | 0.00 | 0.00 | 75 | 1008.2 |
| 20260901080037 | 15 | 29 | 0.0 | 1.6 | 0.00 | 0.00 | 0.00 | 75 | 1008.2 |
| 20260901075550 | 15 | 29 | 1.6 | 3.2 | 0.00 | 0.00 | 0.00 | 74 | 1008.1 |
| 20260901075032 | 15 | 29 | 1.6 | 3.2 | 0.00 | 0.00 | 0.00 | 76 | 1008.1 |
| 20260901074533 | 15 | 29 | 1.6 | 3.2 | 0.00 | 0.00 | 0.00 | 74 | 1008.1 |
| 20260901074035 | 15 | 273 | 1.6 | 1.6 | 0.00 | 0.00 | 0.00 | 74 | 1008.1 |
| 20260901073516 | 16 | 225 | 1.6 | 1.6 | 0.00 | 0.00 | 0.00 | 76 | 1008.1 |
| 20260901073014 | 16 | 225 | 0.0 | 1.6 | 0.00 | 0.00 | 0.00 | 73 | 1008.1 |
| 20260901072519 | 16 | 207 | 0.0 | 3.2 | 0.00 | 0.00 | 0.00 | 73 | 1008.1 |
| 20260901072330 | 16 | 207 | 0.0 | 3.2 | 0.00 | 0.00 | 0.00 | 73 | 1008.1 |
| 20260901071013 | 16 | 213 | 1.6 | 4.8 | 0.00 | 0.00 | 0.00 | 71 | 1007.8 |
| 20260901070512 | 16 | 359 | 1.6 | 3.2 | 0.00 | 0.00 | 0.00 | 71 | 1007.8 |
| 20260901070009 | 16 | 359 | 1.6 | 3.2 | 0.00 | 0.00 | 0.00 | 71 | 1007.8 |
| 20260901065506 | 16 | 359 | 1.6 | 3.2 | 0.00 | 0.00 | 0.00 | 72 | 1007.7 |
| 20260901065113 | 16 | 359 | 0.0 | 1.6 | 0.00 | 0.00 | 0.00 | 72 | 1007.7 |
| 20260901063951 | 16 | 359 | 0.0 | 0.0 | 0.00 | 0.00 | 0.00 | 70 | 1007.7 |
| 20260901063433 | 16 | 359 | 0.0 | 1.6 | 0.00 | 0.00 | 0.00 | 71 | 1007.7 |
| 20260901063234 | 16 | 359 | 1.6 | 1.6 | 0.00 | 0.00 | 0.00 | 71 | 1007.7 |
| 20260901062411 | 16 | 359 | 1.6 | 3.2 | 0.00 | 0.00 | 0.00 | 69 | 1007.7 |
| 20260901061910 | 16 | 359 | 1.6 | 3.2 | 0.00 | 0.00 | 0.00 | 68 | 1007.7 |
| 20260901061403 | 16 | 359 | 3.2 | 4.8 | 0.00 | 0.00 | 0.00 | 70 | 1007.7 |
| 20260901060904 | 16 | 359 | 3.2 | 4.8 | 0.00 | 0.00 | 0.00 | 68 | 1007.7 |
| 20260901060401 | 17 | 13 | 3.2 | 4.8 | 0.00 | 0.00 | 0.00 | 71 | 1007.7 |
| 20260901055902 | 17 | 13 | 1.6 | 4.8 | 0.00 | 0.00 | 0.00 | 70 | 1007.7 |
| 20260901055409 | 17 | 9 | 1.6 | 3.2 | 0.00 | 0.00 | 0.00 | 69 | 1007.8 |
| 20260901054905 | 17 | 359 | 1.6 | 3.2 | 0.00 | 0.00 | 0.00 | 68 | 1007.8 |
| 20260901054339 | 18 | 331 | 1.6 | 3.2 | 0.00 | 0.00 | 0.00 | 65 | 1007.8 |
| 20260901053833 | 18 | 331 | 0.0 | 3.2 | 0.00 | 0.00 | 0.00 | 64 | 1007.8 |
| 20260901053338 | 18 | 331 | 0.0 | 1.6 | 0.00 | 0.00 | 0.00 | 64 | 1007.8 |
| 20260901053051 | 18 | 331 | 1.6 | 3.2 | 0.00 | 0.00 | 0.00 | 62 | 1007.8 |
| 20260901052335 | 18 | 331 | 3.2 | 4.8 | 0.00 | 0.00 | 0.00 | 61 | 1007.8 |
| 20260901051833 | 18 | 331 | 4.8 | 6.4 | 0.00 | 0.00 | 0.00 | 61 | 1007.8 |
| 20260901051610 | 18 | 330 | 4.8 | 6.4 | 0.00 | 0.00 | 0.00 | 62 | 1007.8 |
| 20260901051102 | 18 | 337 | 4.8 | 6.4 | 0.00 | 0.00 | 0.00 | 64 | 1007.8 |
| 20260901050253 | 18 | 359 | 4.8 | 6.4 | 0.00 | 0.00 | 0.00 | 64 | 1007.8 |
| 20260901050114 | 18 | 20 | 4.8 | 6.4 | 0.00 | 0.00 | 0.00 | 60 | 1007.8 |
| 20260901045256 | 19 | 32 | 4.8 | 8.0 | 0.00 | 0.00 | 0.00 | 62 | 1007.8 |
| 20260901045054 | 19 | 27 | 4.8 | 8.0 | 0.00 | 0.00 | 0.00 | 59 | 1007.8 |
| 20260901044535 | 19 | 36 | 4.8 | 8.0 | 0.00 | 0.00 | 0.00 | 59 | 1007.8 |
| 20260901043740 | 19 | 24 | 6.4 | 11.3 | 0.00 | 0.00 | 0.00 | 59 | 1007.6 |
| 20260901043238 | 20 | 4 | 6.4 | 11.3 | 0.00 | 0.00 | 0.00 | 59 | 1007.6 |
| 20260901042737 | 20 | 24 | 8.0 | 14.5 | 0.00 | 0.00 | 0.00 | 57 | 1007.6 |
| 20260901042235 | 20 | 15 | 8.0 | 14.5 | 0.00 | 0.00 | 0.00 | 56 | 1007.6 |
| 20260901041738 | 20 | 21 | 8.0 | 14.5 | 0.00 | 0.00 | 0.00 | 57 | 1007.6 |
| 20260901041547 | 20 | 32 | 6.4 | 9.7 | 0.00 | 0.00 | 0.00 | 56 | 1007.6 |
| 20260901041102 | 20 | 16 | 4.8 | 9.7 | 0.00 | 0.00 | 0.00 | 55 | 1007.6 |
| 20260901040235 | 20 | 27 | 4.8 | 8.0 | 0.00 | 0.00 | 0.00 | 58 | 1007.6 |
| 20260901035739 | 20 | 29 | 4.8 | 9.7 | 0.00 | 0.00 | 0.00 | 55 | 1007.6 |
| 20260901035232 | 20 | 353 | 6.4 | 9.7 | 0.00 | 0.00 | 0.00 | 53 | 1007.3 |
| 20260901034733 | 20 | 346 | 6.4 | 9.7 | 0.00 | 0.00 | 0.00 | 53 | 1007.3 |
| 20260901034234 | 20 | 38 | 6.4 | 9.7 | 0.00 | 0.00 | 0.00 | 55 | 1007.3 |
| 20260901033729 | 20 | 350 | 4.8 | 8.0 | 0.00 | 0.00 | 0.00 | 54 | 1007.1 |
| 20260901033224 | 21 | 344 | 4.8 | 6.4 | 0.00 | 0.00 | 0.00 | 55 | 1007.1 |
| 20260901032725 | 21 | 359 | 3.2 | 6.4 | 0.00 | 0.00 | 0.00 | 54 | 1007.1 |
| 20260901032226 | 21 | 354 | 3.2 | 6.4 | 0.00 | 0.00 | 0.00 | 53 | 1007.1 |
| 20260901031720 | 21 | 352 | 4.8 | 9.7 | 0.00 | 0.00 | 0.00 | 53 | 1007.1 |
| 20260901031217 | 21 | 348 | 4.8 | 9.7 | 0.00 | 0.00 | 0.00 | 52 | 1007.1 |
| 20260901030717 | 21 | 359 | 4.8 | 9.7 | 0.00 | 0.00 | 0.00 | 50 | 1006.8 |
| 20260901030223 | 22 | 33 | 6.4 | 9.7 | 0.00 | 0.00 | 0.00 | 49 | 1006.8 |
| 20260901025718 | 22 | 30 | 6.4 | 9.7 | 0.00 | 0.00 | 0.00 | 49 | 1006.8 |
| 20260901025211 | 22 | 70 | 6.4 | 9.7 | 0.00 | 0.00 | 0.00 | 49 | 1006.7 |
| 20260901024711 | 22 | 16 | 6.4 | 11.3 | 0.00 | 0.00 | 0.00 | 48 | 1006.7 |
| 20260901024220 | 22 | 18 | 6.4 | 11.3 | 0.00 | 0.00 | 0.00 | 47 | 1006.7 |
| 20260901023710 | 23 | 42 | 6.4 | 11.3 | 0.00 | 0.00 | 0.00 | 47 | 1006.6 |
| 20260901023202 | 23 | 24 | 8.0 | 12.9 | 0.00 | 0.00 | 0.00 | 46 | 1006.6 |
| 20260901023013 | 23 | 47 | 8.0 | 12.9 | 0.00 | 0.00 | 0.00 | 45 | 1006.6 |
| 20260901022203 | 23 | 63 | 6.4 | 11.3 | 0.00 | 0.00 | 0.00 | 44 | 1006.7 |
| 20260901021705 | 23 | 34 | 6.4 | 9.7 | 0.00 | 0.00 | 0.00 | 44 | 1006.7 |
| 20260901021545 | 23 | 50 | 6.4 | 14.5 | 0.00 | 0.00 | 0.00 | 44 | 1006.7 |
| 20260901020701 | 24 | 62 | 6.4 | 14.5 | 0.00 | 0.00 | 0.00 | 44 | 1006.7 |
| 20260901020516 | 24 | 46 | 8.0 | 14.5 | 0.00 | 0.00 | 0.00 | 43 | 1006.7 |
| 20260901015648 | 24 | 79 | 6.4 | 14.5 | 0.00 | 0.00 | 0.00 | 39 | 1006.7 |
| 20260901015517 | 24 | 45 | 4.8 | 9.7 | 0.00 | 0.00 | 0.00 | 43 | 1006.9 |
| 20260901014645 | 24 | 34 | 6.4 | 12.9 | 0.00 | 0.00 | 0.00 | 42 | 1006.9 |
| 20260901014140 | 24 | 67 | 6.4 | 12.9 | 0.00 | 0.00 | 0.00 | 42 | 1007.0 |
| 20260901013640 | 24 | 65 | 8.0 | 14.5 | 0.00 | 0.00 | 0.00 | 42 | 1007.0 |
| 20260901013140 | 24 | 74 | 8.0 | 16.1 | 0.00 | 0.00 | 0.00 | 41 | 1007.0 |
| 20260901012644 | 24 | 70 | 8.0 | 16.1 | 0.00 | 0.00 | 0.00 | 41 | 1007.1 |
| 20260901012138 | 25 | 83 | 8.0 | 14.5 | 0.00 | 0.00 | 0.00 | 41 | 1007.1 |
| 20260901011634 | 25 | 90 | 6.4 | 11.3 | 0.00 | 0.00 | 0.00 | 41 | 1007.1 |
| 20260901011134 | 25 | 71 | 4.8 | 9.7 | 0.00 | 0.00 | 0.00 | 40 | 1007.1 |
| 20260901010636 | 25 | 114 | 3.2 | 9.7 | 0.00 | 0.00 | 0.00 | 39 | 1007.1 |
| 20260901010138 | 25 | 14 | 3.2 | 8.0 | 0.00 | 0.00 | 0.00 | 39 | 1007.1 |
| 20260901005632 | 25 | 65 | 6.4 | 9.7 | 0.00 | 0.00 | 0.00 | 40 | 1007.1 |
| 20260901005136 | 25 | 71 | 6.4 | 9.7 | 0.00 | 0.00 | 0.00 | 40 | 1007.1 |
| 20260901004631 | 25 | 77 | 6.4 | 9.7 | 0.00 | 0.00 | 0.00 | 39 | 1007.1 |
| 20260901004130 | 25 | 45 | 6.4 | 9.7 | 0.00 | 0.00 | 0.00 | 39 | 1007.1 |
| 20260901003637 | 25 | 74 | 6.4 | 9.7 | 0.00 | 0.00 | 0.00 | 40 | 1007.1 |
| 20260901003132 | 25 | 105 | 4.8 | 9.7 | 0.00 | 0.00 | 0.00 | 39 | 1007.1 |
| 20260901002924 | 25 | 39 | 3.2 | 6.4 | 0.00 | 0.00 | 0.00 | 39 | 1007.2 |
| 20260901002140 | 25 | 32 | 3.2 | 6.4 | 0.00 | 0.00 | 0.00 | 39 | 1007.2 |
| 20260901001643 | 25 | 344 | 3.2 | 9.7 | 0.00 | 0.00 | 0.00 | 39 | 1007.2 |
| 20260901001135 | 25 | 19 | 4.8 | 9.7 | 0.00 | 0.00 | 0.00 | 40 | 1007.4 |
| 20260901000620 | 25 | 340 | 4.8 | 8.0 | 0.00 | 0.00 | 0.00 | 40 | 1007.4 |
| 20260901000119 | 24 | 9 | 4.8 | 8.0 | 0.00 | 0.00 | 0.00 | 41 | 1007.4 |
| 20260831235616 | 24 | 4 | 4.8 | 6.4 | 0.00 | 0.00 | 0.00 | 43 | 1007.6 |
| 20260831235354 | 24 | 13 | 4.8 | 6.4 | 0.00 | 0.00 | 0.00 | 42 | 1007.6 |
| 20260831234609 | 25 | 340 | 4.8 | 8.0 | 0.00 | 0.00 | 0.00 | 41 | 1007.6 |
| 20260831234111 | 25 | 323 | 4.8 | 8.0 | 0.00 | 0.00 | 0.00 | 41 | 1007.6 |
| 20260831233604 | 25 | 346 | 4.8 | 8.0 | 0.00 | 0.00 | 0.00 | 40 | 1007.6 |
| 20260831233102 | 25 | 340 | 4.8 | 6.4 | 0.00 | 0.00 | 0.00 | 41 | 1007.6 |
| 20260831232606 | 24 | 329 | 4.8 | 9.7 | 0.00 | 0.00 | 0.00 | 40 | 1007.6 |
| 20260831232110 | 24 | 344 | 4.8 | 9.7 | 0.00 | 0.00 | 0.00 | 41 | 1007.6 |
| 20260831231607 | 24 | 359 | 4.8 | 8.0 | 0.00 | 0.00 | 0.00 | 41 | 1007.6 |
| 20260831231108 | 24 | 331 | 4.8 | 8.0 | 0.00 | 0.00 | 0.00 | 41 | 1007.7 |
| 20260831230602 | 24 | 359 | 4.8 | 8.0 | 0.00 | 0.00 | 0.00 | 42 | 1007.7 |
| 20260831225614 | 23 | 354 | 6.4 | 9.7 | 0.00 | 0.00 | 0.00 | 44 | 1007.9 |
| 20260831225105 | 23 | 354 | 6.4 | 9.7 | 0.00 | 0.00 | 0.00 | 43 | 1007.9 |
| 20260831224606 | 23 | 13 | 6.4 | 9.7 | 0.00 | 0.00 | 0.00 | 44 | 1007.9 |
| 20260831224102 | 23 | 359 | 6.4 | 9.7 | 0.00 | 0.00 | 0.00 | 45 | 1008.1 |
| 20260831223556 | 23 | 17 | 6.4 | 9.7 | 0.00 | 0.00 | 0.00 | 43 | 1008.1 |
| 20260831223340 | 23 | 359 | 4.8 | 8.0 | 0.00 | 0.00 | 0.00 | 43 | 1008.1 |
| 20260831222542 | 23 | 343 | 6.4 | 9.7 | 0.00 | 0.00 | 0.00 | 46 | 1008.3 |
| 20260831222047 | 23 | 352 | 8.0 | 9.7 | 0.00 | 0.00 | 0.00 | 45 | 1008.3 |
| 20260831221840 | 23 | 15 | 6.4 | 9.7 | 0.00 | 0.00 | 0.00 | 46 | 1008.3 |
| 20260831221043 | 23 | 9 | 8.0 | 11.3 | 0.00 | 0.00 | 0.00 | 44 | 1008.6 |
| 20260831220623 | 22 | 359 | 9.7 | 14.5 | 0.00 | 0.00 | 0.00 | 46 | 1008.6 |
| 20260831215539 | 22 | 16 | 9.7 | 14.5 | 0.00 | 0.00 | 0.00 | 48 | 1008.8 |
| 20260831215035 | 22 | 19 | 9.7 | 14.5 | 0.00 | 0.00 | 0.00 | 48 | 1008.8 |
| 20260831214530 | 22 | 342 | 11.3 | 14.5 | 0.00 | 0.00 | 0.00 | 49 | 1008.8 |
| 20260831214031 | 22 | 13 | 9.7 | 16.1 | 0.00 | 0.00 | 0.00 | 48 | 1009.1 |
| 20260831213531 | 22 | 14 | 9.7 | 16.1 | 0.00 | 0.00 | 0.00 | 49 | 1009.1 |
| 20260831213034 | 21 | 344 | 11.3 | 17.7 | 0.00 | 0.00 | 0.00 | 50 | 1009.1 |
| 20260831212529 | 21 | 13 | 9.7 | 17.7 | 0.00 | 0.00 | 0.00 | 52 | 1009.2 |
| 20260831212029 | 21 | 13 | 11.3 | 17.7 | 0.00 | 0.00 | 0.00 | 51 | 1009.2 |
| 20260831211537 | 21 | 339 | 12.9 | 17.7 | 0.00 | 0.00 | 0.00 | 51 | 1009.2 |
| 20260831211336 | 21 | 21 | 11.3 | 17.7 | 0.00 | 0.00 | 0.00 | 52 | 1009.3 |
| 20260831210530 | 21 | 9 | 9.7 | 16.1 | 0.00 | 0.00 | 0.00 | 54 | 1009.3 |
| 20260831210036 | 21 | 13 | 9.7 | 16.1 | 0.00 | 0.00 | 0.00 | 53 | 1009.3 |
| 20260831205535 | 21 | 30 | 9.7 | 16.1 | 0.00 | 0.00 | 0.00 | 55 | 1009.6 |
| 20260831205029 | 21 | 19 | 9.7 | 16.1 | 0.00 | 0.00 | 0.00 | 55 | 1009.6 |
| 20260831204515 | 21 | 9 | 11.3 | 17.7 | 0.00 | 0.00 | 0.00 | 55 | 1009.6 |
| 20260831204014 | 21 | 359 | 11.3 | 17.7 | 0.00 | 0.00 | 0.00 | 54 | 1009.7 |
| 20260831203507 | 21 | 334 | 9.7 | 16.1 | 0.00 | 0.00 | 0.00 | 54 | 1009.7 |
| 20260831203007 | 21 | 351 | 8.0 | 14.5 | 0.00 | 0.00 | 0.00 | 55 | 1009.7 |
| 20260831202503 | 21 | 4 | 6.4 | 11.3 | 0.00 | 0.00 | 0.00 | 55 | 1010.0 |
| 20260831202003 | 20 | 9 | 6.4 | 14.5 | 0.00 | 0.00 | 0.00 | 54 | 1010.0 |
| 20260831201506 | 20 | 4 | 8.0 | 14.5 | 0.00 | 0.00 | 0.00 | 56 | 1010.0 |
| 20260831201003 | 20 | 342 | 8.0 | 12.9 | 0.00 | 0.00 | 0.00 | 55 | 1010.2 |
| 20260831200504 | 20 | 9 | 9.7 | 16.1 | 0.00 | 0.00 | 0.00 | 58 | 1010.2 |
| 20260831200002 | 20 | 345 | 9.7 | 16.1 | 0.00 | 0.00 | 0.00 | 56 | 1010.2 |
| 20260831195504 | 20 | 354 | 9.7 | 16.1 | 0.00 | 0.00 | 0.00 | 57 | 1010.5 |
| 20260831195001 | 20 | 9 | 9.7 | 16.1 | 0.00 | 0.00 | 0.00 | 57 | 1010.5 |
| 20260831194502 | 20 | 9 | 8.0 | 14.5 | 0.00 | 0.00 | 0.00 | 58 | 1010.5 |
| 20260831194001 | 20 | 352 | 8.0 | 14.5 | 0.00 | 0.00 | 0.00 | 58 | 1010.8 |
| 20260831193501 | 19 | 340 | 8.0 | 14.5 | 0.00 | 0.00 | 0.00 | 59 | 1010.8 |
| 20260831193003 | 19 | 9 | 8.0 | 14.5 | 0.00 | 0.00 | 0.00 | 60 | 1010.8 |
| 20260831192505 | 19 | 331 | 8.0 | 14.5 | 0.00 | 0.00 | 0.00 | 59 | 1010.9 |
| 20260831192316 | 19 | 20 | 8.0 | 11.3 | 0.00 | 0.00 | 0.00 | 61 | 1010.9 |
| 20260831191502 | 19 | 14 | 8.0 | 12.9 | 0.00 | 0.00 | 0.00 | 62 | 1010.9 |
| 20260831191010 | 18 | 359 | 9.7 | 17.7 | 0.00 | 0.00 | 0.00 | 63 | 1011.2 |
| 20260831190505 | 18 | 354 | 8.0 | 17.7 | 0.00 | 0.00 | 0.00 | 61 | 1011.2 |
| 20260831190002 | 18 | 22 | 6.4 | 14.5 | 0.00 | 0.00 | 0.00 | 64 | 1011.2 |
| 20260831185454 | 18 | 42 | 9.7 | 24.1 | 0.00 | 0.00 | 0.00 | 62 | 1011.3 |
| 20260831184953 | 18 | 17 | 12.9 | 24.1 | 0.00 | 0.00 | 0.00 | 64 | 1011.3 |
| 20260831184537 | 18 | 344 | 12.9 | 17.7 | 0.00 | 0.00 | 0.00 | 64 | 1011.3 |
| 20260831183427 | 18 | 34 | 12.9 | 22.5 | 0.00 | 0.00 | 0.00 | 60 | 1011.4 |
| 20260831182932 | 18 | 9 | 11.3 | 17.7 | 0.00 | 0.00 | 0.00 | 64 | 1011.4 |
| 20260831182721 | 18 | 28 | 9.7 | 17.7 | 0.00 | 0.00 | 0.00 | 64 | 1011.8 |
| 20260831182218 | 18 | 335 | 8.0 | 17.7 | 0.00 | 0.00 | 0.00 | 63 | 1011.8 |
| 20260831181701 | 18 | 9 | 8.0 | 17.7 | 0.00 | 0.00 | 0.00 | 63 | 1011.8 |
| 20260831180903 | 18 | 59 | 8.0 | 19.3 | 0.00 | 0.00 | 0.00 | 63 | 1011.8 |
| 20260831180402 | 18 | 32 | 6.4 | 17.7 | 0.00 | 0.00 | 0.00 | 64 | 1011.8 |
| 20260831175902 | 18 | 53 | 8.0 | 20.9 | 0.00 | 0.00 | 0.00 | 64 | 1011.8 |
| 20260831175659 | 18 | 37 | 9.7 | 20.9 | 0.00 | 0.00 | 0.00 | 64 | 1011.9 |
| 20260831174905 | 17 | 60 | 12.9 | 20.9 | 0.00 | 0.00 | 0.00 | 65 | 1011.9 |
| 20260831174402 | 17 | 21 | 12.9 | 22.5 | 0.00 | 0.00 | 0.00 | 65 | 1011.9 |
| 20260831173904 | 17 | 45 | 12.9 | 22.5 | 0.00 | 0.00 | 0.00 | 66 | 1012.2 |
| 20260831173714 | 17 | 21 | 12.9 | 19.3 | 0.00 | 0.00 | 0.00 | 68 | 1012.2 |
| 20260831172903 | 16 | 359 | 11.3 | 19.3 | 0.00 | 0.00 | 0.00 | 72 | 1012.2 |
| 20260831172402 | 16 | 359 | 11.3 | 20.9 | 0.00 | 0.00 | 0.00 | 73 | 1012.3 |
| 20260831172009 | 16 | 26 | 11.3 | 20.9 | 0.00 | 0.00 | 0.00 | 73 | 1012.3 |
| 20260831170906 | 16 | 19 | 8.0 | 16.1 | 0.00 | 0.00 | 0.00 | 74 | 1012.3 |
| 20260831170405 | 16 | 354 | 9.7 | 17.7 | 0.00 | 0.00 | 0.00 | 75 | 1012.3 |
| 20260831165909 | 16 | 335 | 9.7 | 17.7 | 0.00 | 0.00 | 0.00 | 76 | 1012.3 |
| 20260831165414 | 15 | 346 | 8.0 | 16.1 | 0.00 | 0.00 | 0.00 | 77 | 1012.3 |
| 20260831165159 | 15 | 13 | 8.0 | 12.9 | 0.00 | 0.00 | 0.00 | 77 | 1012.3 |
| 20260831164401 | 15 | 9 | 8.0 | 11.3 | 0.00 | 0.00 | 0.00 | 78 | 1012.3 |
| 20260831163855 | 15 | 13 | 6.4 | 11.3 | 0.00 | 0.00 | 0.00 | 79 | 1012.4 |
| 20260831163345 | 15 | 347 | 6.4 | 11.3 | 0.00 | 0.00 | 0.00 | 80 | 1012.4 |
| 20260831162838 | 15 | 344 | 6.4 | 11.3 | 0.00 | 0.00 | 0.00 | 81 | 1012.4 |
| 20260831162340 | 15 | 340 | 6.4 | 9.7 | 0.00 | 0.00 | 0.00 | 81 | 1012.6 |
| 20260831161841 | 15 | 352 | 6.4 | 9.7 | 0.00 | 0.00 | 0.00 | 82 | 1012.6 |
| 20260831161336 | 15 | 352 | 8.0 | 11.3 | 0.00 | 0.00 | 0.00 | 83 | 1012.6 |
| 20260831161128 | 14 | 333 | 8.0 | 11.3 | 0.00 | 0.00 | 0.00 | 83 | 1012.8 |
| 20260831160335 | 14 | 9 | 8.0 | 11.3 | 0.00 | 0.00 | 0.00 | 84 | 1012.8 |
| 20260831155834 | 14 | 327 | 8.0 | 11.3 | 0.00 | 0.00 | 0.00 | 84 | 1012.8 |
| 20260831155332 | 14 | 354 | 6.4 | 11.3 | 0.00 | 0.00 | 0.00 | 84 | 1012.9 |
| 20260831154832 | 14 | 359 | 6.4 | 8.0 | 0.00 | 0.00 | 0.00 | 86 | 1012.9 |
| 20260831154332 | 14 | 344 | 6.4 | 9.7 | 0.00 | 0.00 | 0.00 | 86 | 1012.9 |
| 20260831153831 | 13 | 349 | 6.4 | 9.7 | 0.00 | 0.00 | 0.00 | 87 | 1012.9 |
| 20260831153335 | 13 | 341 | 6.4 | 9.7 | 0.00 | 0.00 | 0.00 | 87 | 1012.9 |
| 20260831153144 | 13 | 13 | 6.4 | 8.0 | 0.00 | 0.00 | 0.00 | 87 | 1012.9 |
| 20260831152333 | 13 | 9 | 6.4 | 8.0 | 0.00 | 0.00 | 0.00 | 87 | 1013.1 |
| 20260831151836 | 13 | 4 | 4.8 | 8.0 | 0.00 | 0.00 | 0.00 | 86 | 1013.1 |
| 20260831151342 | 13 | 21 | 3.2 | 6.4 | 0.00 | 0.00 | 0.00 | 86 | 1013.1 |
| 20260831150838 | 13 | 359 | 3.2 | 4.8 | 0.00 | 0.00 | 0.00 | 86 | 1013.1 |
| 20260831150432 | 13 | 359 | 3.2 | 4.8 | 0.00 | 0.00 | 0.00 | 86 | 1013.1 |
| 20260831145336 | 13 | 22 | 1.6 | 3.2 | 0.00 | 0.00 | 0.00 | 87 | 1013.0 |
| 20260831144831 | 13 | 39 | 1.6 | 3.2 | 0.00 | 0.00 | 0.00 | 87 | 1013.0 |
| 20260831144335 | 13 | 26 | 1.6 | 3.2 | 0.00 | 0.00 | 0.00 | 87 | 1013.0 |
| 20260831143822 | 13 | 47 | 1.6 | 4.8 | 0.00 | 0.00 | 0.00 | 88 | 1013.0 |
| 20260831143312 | 13 | 16 | 1.6 | 4.8 | 0.00 | 0.00 | 0.00 | 88 | 1013.0 |
| 20260831142808 | 12 | 16 | 3.2 | 4.8 | 0.00 | 0.00 | 0.00 | 88 | 1013.0 |
| 20260831142306 | 12 | 9 | 1.6 | 3.2 | 0.00 | 0.00 | 0.00 | 88 | 1013.0 |
| 20260831141802 | 12 | 66 | 1.6 | 3.2 | 0.00 | 0.00 | 0.00 | 88 | 1013.0 |
| 20260831141302 | 12 | 81 | 0.0 | 1.6 | 0.00 | 0.00 | 0.00 | 88 | 1013.0 |
| 20260831140841 | 12 | 81 | 0.0 | 0.0 | 0.00 | 0.00 | 0.00 | 87 | 1013.0 |
| 20260831135805 | 12 | 81 | 0.0 | 1.6 | 0.00 | 0.00 | 0.00 | 87 | 1013.0 |
| 20260831135302 | 12 | 81 | 1.6 | 1.6 | 0.00 | 0.00 | 0.00 | 86 | 1012.9 |
| 20260831134801 | 12 | 82 | 1.6 | 1.6 | 0.00 | 0.00 | 0.00 | 86 | 1012.9 |
| 20260831134303 | 12 | 82 | 1.6 | 1.6 | 0.00 | 0.00 | 0.00 | 85 | 1012.9 |
| 20260831133806 | 12 | 82 | 1.6 | 3.2 | 0.00 | 0.00 | 0.00 | 85 | 1013.1 |
| 20260831133556 | 12 | 82 | 1.6 | 3.2 | 0.00 | 0.00 | 0.00 | 85 | 1013.1 |
| 20260831132802 | 12 | 82 | 0.0 | 1.6 | 0.00 | 0.00 | 0.00 | 85 | 1013.1 |
| 20260831132308 | 12 | 82 | 0.0 | 1.6 | 0.00 | 0.00 | 0.00 | 85 | 1013.2 |
| 20260831131806 | 12 | 82 | 1.6 | 3.2 | 0.00 | 0.00 | 0.00 | 85 | 1013.2 |
| 20260831131302 | 12 | 82 | 1.6 | 3.2 | 0.00 | 0.00 | 0.00 | 85 | 1013.2 |
| 20260831130802 | 12 | 54 | 1.6 | 3.2 | 0.00 | 0.00 | 0.00 | 85 | 1013.3 |
| 20260831130301 | 12 | 9 | 0.0 | 3.2 | 0.00 | 0.00 | 0.00 | 86 | 1013.3 |
| 20260831130051 | 12 | 9 | 0.0 | 1.6 | 0.00 | 0.00 | 0.00 | 86 | 1013.3 |
| 20260831125552 | 12 | 9 | 0.0 | 3.2 | 0.00 | 0.00 | 0.00 | 86 | 1013.3 |
| 20260831125102 | 12 | 9 | 1.6 | 3.2 | 0.00 | 0.00 | 0.00 | 86 | 1013.3 |
| 20260831124302 | 12 | 9 | 1.6 | 3.2 | 0.00 | 0.00 | 0.00 | 86 | 1013.3 |
| 20260831123801 | 12 | 9 | 0.0 | 1.6 | 0.00 | 0.00 | 0.00 | 87 | 1013.4 |
| 20260831123308 | 13 | 9 | 0.0 | 1.6 | 0.00 | 0.00 | 0.00 | 87 | 1013.4 |
| 20260831123055 | 13 | 9 | 0.0 | 1.6 | 0.00 | 0.00 | 0.00 | 86 | 1013.4 |
| 20260831122256 | 13 | 9 | 0.0 | 1.6 | 0.00 | 0.00 | 0.00 | 86 | 1013.4 |
| 20260831121756 | 13 | 9 | 0.0 | 0.0 | 0.00 | 0.00 | 0.00 | 86 | 1013.4 |
| 20260831121237 | 13 | 9 | 0.0 | 0.0 | 0.00 | 0.00 | 0.00 | 86 | 1013.4 |
| 20260831120731 | 13 | 9 | 0.0 | 1.6 | 0.00 | 0.00 | 0.00 | 86 | 1013.6 |
| 20260831120226 | 13 | 9 | 0.0 | 1.6 | 0.00 | 0.00 | 0.00 | 86 | 1013.6 |
| 20260831115723 | 13 | 9 | 0.0 | 1.6 | 0.00 | 0.00 | 0.00 | 85 | 1013.6 |
| 20260831115223 | 13 | 9 | 0.0 | 1.6 | 0.00 | 0.00 | 0.00 | 85 | 1013.7 |
| 20260831114711 | 13 | 9 | 1.6 | 3.2 | 0.00 | 0.00 | 0.00 | 85 | 1013.7 |
| 20260831114208 | 13 | 9 | 1.6 | 3.2 | 0.00 | 0.00 | 0.00 | 85 | 1013.7 |
| 20260831113702 | 13 | 9 | 1.6 | 3.2 | 0.00 | 0.00 | 0.00 | 85 | 1013.8 |
| 20260831113206 | 13 | 9 | 1.6 | 3.2 | 0.00 | 0.00 | 0.00 | 85 | 1013.8 |
| 20260831112706 | 13 | 9 | 1.6 | 3.2 | 0.00 | 0.00 | 0.00 | 85 | 1013.8 |
| 20260831112512 | 13 | 9 | 1.6 | 4.8 | 0.00 | 0.00 | 0.00 | 84 | 1013.9 |
| 20260831111706 | 13 | 9 | 3.2 | 4.8 | 0.00 | 0.00 | 0.00 | 85 | 1013.9 |
| 20260831111205 | 13 | 4 | 1.6 | 4.8 | 0.00 | 0.00 | 0.00 | 85 | 1013.9 |
| 20260831110703 | 13 | 359 | 3.2 | 4.8 | 0.00 | 0.00 | 0.00 | 84 | 1013.9 |
| 20260831110137 | 13 | 359 | 3.2 | 4.8 | 0.00 | 0.00 | 0.00 | 84 | 1013.9 |
| 20260831105635 | 13 | 17 | 3.2 | 4.8 | 0.00 | 0.00 | 0.00 | 83 | 1013.9 |
| 20260831105133 | 13 | 339 | 1.6 | 4.8 | 0.00 | 0.00 | 0.00 | 83 | 1013.9 |
| 20260831104636 | 13 | 21 | 1.6 | 3.2 | 0.00 | 0.00 | 0.00 | 83 | 1013.9 |
| 20260831104131 | 13 | 21 | 1.6 | 3.2 | 0.00 | 0.00 | 0.00 | 83 | 1014.0 |
| 20260831103632 | 13 | 21 | 1.6 | 3.2 | 0.00 | 0.00 | 0.00 | 83 | 1014.0 |
| 20260831103132 | 13 | 21 | 0.0 | 3.2 | 0.00 | 0.00 | 0.00 | 82 | 1014.0 |
| 20260831102625 | 13 | 21 | 0.0 | 1.6 | 0.00 | 0.00 | 0.00 | 82 | 1014.1 |
| 20260831102128 | 13 | 21 | 0.0 | 1.6 | 0.00 | 0.00 | 0.00 | 81 | 1014.1 |
| 20260831101628 | 13 | 20 | 1.6 | 3.2 | 0.00 | 0.00 | 0.00 | 81 | 1014.1 |
| 20260831101106 | 13 | 21 | 1.6 | 3.2 | 0.00 | 0.00 | 0.00 | 81 | 1014.4 |
| 20260831100609 | 13 | 21 | 1.6 | 3.2 | 0.00 | 0.00 | 0.00 | 80 | 1014.4 |
| 20260831100145 | 13 | 21 | 1.6 | 3.2 | 0.00 | 0.00 | 0.00 | 80 | 1014.4 |
| 20260831094603 | 13 | 21 | 0.0 | 1.6 | 0.00 | 0.00 | 0.00 | 80 | 1014.4 |
| 20260831094104 | 13 | 21 | 0.0 | 1.6 | 0.00 | 0.00 | 0.00 | 80 | 1014.5 |
| 20260831093553 | 13 | 21 | 0.0 | 1.6 | 0.00 | 0.00 | 0.00 | 80 | 1014.5 |
| 20260831093050 | 13 | 21 | 0.0 | 3.2 | 0.00 | 0.00 | 0.00 | 80 | 1014.5 |
| 20260831092606 | 14 | 21 | 1.6 | 4.8 | 0.00 | 0.00 | 0.00 | 80 | 1014.4 |
| 20260831092054 | 14 | 20 | 3.2 | 4.8 | 0.00 | 0.00 | 0.00 | 80 | 1014.4 |
| 20260831091546 | 14 | 9 | 3.2 | 4.8 | 0.00 | 0.00 | 0.00 | 80 | 1014.4 |
| 20260831091042 | 14 | 4 | 4.8 | 6.4 | 0.00 | 0.00 | 0.00 | 80 | 1014.6 |
| 20260831090540 | 14 | 15 | 4.8 | 6.4 | 0.00 | 0.00 | 0.00 | 79 | 1014.6 |
| 20260831090039 | 14 | 359 | 4.8 | 6.4 | 0.00 | 0.00 | 0.00 | 79 | 1014.6 |
| 20260831085545 | 14 | 346 | 3.2 | 6.4 | 0.00 | 0.00 | 0.00 | 79 | 1014.9 |
| 20260831085036 | 14 | 4 | 3.2 | 4.8 | 0.00 | 0.00 | 0.00 | 79 | 1014.9 |
| 20260831084532 | 14 | 17 | 4.8 | 6.4 | 0.00 | 0.00 | 0.00 | 79 | 1014.9 |
| 20260831084033 | 14 | 31 | 4.8 | 6.4 | 0.00 | 0.00 | 0.00 | 78 | 1015.0 |
| 20260831083528 | 14 | 29 | 3.2 | 4.8 | 0.00 | 0.00 | 0.00 | 78 | 1015.0 |
| 20260831083029 | 14 | 32 | 3.2 | 4.8 | 0.00 | 0.00 | 0.00 | 79 | 1015.0 |
| 20260831082824 | 14 | 65 | 1.6 | 3.2 | 0.00 | 0.00 | 0.00 | 80 | 1015.0 |
| 20260831082021 | 15 | 13 | 1.6 | 3.2 | 0.00 | 0.00 | 0.00 | 79 | 1015.0 |